This is the latest recevied weather packets stored in our database for station/object AJ7DN. If no packets are shown the sender has not sent any weather packets the latest 10 day(s).
| Time | Temp. | Humidity | Pressure | Rain* | Wind** | Luminosity | Snow |
|---|---|---|---|---|---|---|---|
| 1777902798 | 11.67° C | 90% | 1016.9 hPa | 0 mm | - | 21 W/m² | - |
| 1777902496 | 11.67° C | 91% | 1016.7 hPa | 0 mm | - | 21 W/m² | - |
| 1777902192 | 11.67° C | 91% | 1016.8 hPa | 0 mm | - | 19 W/m² | - |
| 1777901890 | 11.67° C | 91% | 1016.8 hPa | 0 mm | - | 15 W/m² | - |
| 1777901588 | 11.67° C | 91% | 1016.9 hPa | 0 mm | - | 10 W/m² | - |
| 1777901285 | 11.67° C | 91% | 1016.7 hPa | 0 mm | - | 11 W/m² | - |
| 1777900982 | 11.67° C | 91% | 1016.6 hPa | 0 mm | - | 7 W/m² | - |
| 1777900680 | 11.67° C | 91% | 1016.4 hPa | 0 mm | - | 4 W/m² | - |
| 1777900376 | 11.67° C | 91% | 1016.4 hPa | 0 mm | - | 3 W/m² | - |
| 1777900074 | 11.67° C | 91% | 1016.2 hPa | 0 mm | - | 2 W/m² | - |
| 1777899769 | 11.67° C | 91% | 1016.1 hPa | 0 mm | - | 1 W/m² | - |
| 1777899466 | 11.67° C | 90% | 1016 hPa | 0 mm | - | 0 W/m² | - |
| 1777899164 | 11.67° C | 90% | 1016 hPa | 0 mm | - | 0 W/m² | - |
| 1777898862 | 11.67° C | 90% | 1015.9 hPa | 0 mm | - | 0 W/m² | - |
| 1777898559 | 11.67° C | 90% | 1015.9 hPa | 0 mm | - | 0 W/m² | - |
| 1777898257 | 11.67° C | 90% | 1015.7 hPa | 0 mm | - | 0 W/m² | - |
| 1777897954 | 11.67° C | 89% | 1015.6 hPa | 0 mm | - | 0 W/m² | - |
| 1777897650 | 12.22° C | 89% | 1015.5 hPa | 0 mm | - | 0 W/m² | - |
| 1777897346 | 12.22° C | 89% | 1015.8 hPa | 0 mm | - | 0 W/m² | - |
| 1777897042 | 12.22° C | 89% | 1015.6 hPa | 0 mm | - | 0 W/m² | - |
| 1777896739 | 12.22° C | 89% | 1015.5 hPa | 0 mm | - | 0 W/m² | - |
| 1777896436 | 12.22° C | 89% | 1015.3 hPa | 0 mm | - | 0 W/m² | - |
| 1777896134 | 12.22° C | 89% | 1015.4 hPa | 0 mm | - | 0 W/m² | - |
| 1777895831 | 12.22° C | 89% | 1015.4 hPa | 0 mm | - | 0 W/m² | - |
| 1777895528 | 12.22° C | 88% | 1015.5 hPa | 0 mm | - | 0 W/m² | - |
* Rain latest hour (hover to see other rain measurements)
** Current wind speed in m/s (hover to see current wind gust speed)